Location: Budapest
(47.4979°N, 19.0402°E)
Time: 05:05:00
(UTC+02:00)

ISS - Pass Details

Date: 13 October 2017
Orbit: 401 x 408 km, 51.6° (Epoch: 21 October)

Event Time Altitude Azimuth Distance (km) Brightness Sun altitude
Rises 20:07:23 0° 285° (WNW) 2,327 1.5 -22.3°
Reaches altitude 10° 20:10:05 10° 261° (W) 1,464 -0.1 -22.7°
Maximum altitude 20:12:04 15° 224° (SW) 1,190 -1.2 -23.0°
Enters shadow 20:12:38 15° 212° (SSW) 1,213 -1.3 -23.1°
